DW1345 Weather Reports


Display with metric or nautical units.
time (UTC)temp
F
wind
direction
speed
MPH
gust
MPH
rain 1hr
in
rain 24hr
in
rain mn
in
humidity
%
barometer
mb
20260903103012 57 116 2.0 0.0 0.00 0.00 0.00 78 1000.3
20260903101510 58 121 1.0 0.0 0.00 0.00 0.00 78 1000.2
20260903100018 59 120 0.0 0.0 0.00 0.00 0.00 80 1000.1
20260903094505 58 120 0.0 0.0 0.00 0.00 0.00 81 1000.0
20260903093002 58 119 0.0 0.0 0.00 0.00 0.00 84 1000.1
20260903091558 56 119 0.0 0.0 0.00 0.00 0.00 87 1000.0
20260903090056 55 119 0.0 0.0 0.00 0.00 0.00 89 1000.2
20260903084552 53 117 1.0 0.0 0.00 0.00 0.00 92 1000.0
20260903083055 53 67 0.0 0.0 0.00 0.00 0.00 93 1000.2
20260903081549 52 69 1.0 0.0 0.00 0.00 0.00 94 1000.1
20260903080047 52 77 2.0 0.0 0.00 0.00 0.00 93 1000.3
20260903074550 52 64 1.0 0.0 0.00 0.00 0.00 93 1000.3
20260903073049 52 155 0.0 0.0 0.00 0.00 0.00 94 1000.2
20260903071605 52 155 0.0 0.0 0.00 0.00 0.00 94 1000.2
20260903070059 52 155 0.0 0.0 0.00 0.00 0.00 94 1000.0
20260903064544 52 155 0.0 0.0 0.00 0.00 0.00 94 1000.0
20260903063044 52 173 0.0 0.0 0.00 0.00 0.00 96 999.9
20260903061543 51 174 0.0 0.0 0.00 0.00 0.00 96 1000.0
20260903060039 50 180 0.0 0.0 0.00 0.00 0.00 96 999.9
20260903054543 49 180 0.0 0.0 0.00 0.00 0.00 96 999.9
20260903053034 48 182 0.0 0.0 0.00 0.00 0.00 96 999.9
20260903051530 48 184 0.0 0.0 0.00 0.00 0.00 96 999.9
20260903050034 47 184 0.0 0.0 0.00 0.00 0.00 96 999.8
20260903044526 47 184 0.0 0.0 0.00 0.00 0.00 96 999.8
20260903043027 46 184 0.0 0.0 0.00 0.00 0.00 95 999.7
20260903041524 46 184 0.0 0.0 0.00 0.00 0.00 95 999.8
20260903040024 46 184 0.0 0.0 0.00 0.00 0.00 95 999.8
20260903034527 46 184 0.0 0.0 0.00 0.00 0.00 95 999.8
20260903033022 46 184 0.0 0.0 0.00 0.00 0.00 95 999.6
20260903031520 46 184 0.0 0.0 0.00 0.00 0.00 95 999.6
20260903030018 45 184 0.0 0.0 0.00 0.00 0.00 95 999.7
20260903024518 45 184 0.0 0.0 0.00 0.00 0.00 95 999.7
20260903023031 46 184 0.0 0.0 0.00 0.00 0.00 95 999.8
20260903021518 45 184 0.0 0.0 0.00 0.00 0.00 95 999.8
20260903020015 45 184 0.0 0.0 0.00 0.00 0.00 95 999.8
20260903014520 46 184 0.0 0.0 0.00 0.00 0.00 95 999.8
20260903013014 45 184 0.0 0.0 0.00 0.00 0.00 95 999.8
20260903011520 45 225 0.0 0.0 0.00 0.00 0.00 95 999.9
20260903010012 45 227 0.0 0.0 0.00 0.00 0.00 94 1000.0
20260903004512 45 229 0.0 0.0 0.00 0.00 0.00 94 1000.0
20260903003009 45 229 0.0 0.0 0.00 0.00 0.00 94 1000.1
20260903001517 44 229 0.0 0.0 0.00 0.00 0.00 94 1000.1
20260903000012 44 229 0.0 0.0 0.00 0.00 0.00 94 1000.0
20260902234505 45 229 0.0 0.0 0.00 0.00 0.00 94 1000.0
20260902233007 45 229 0.0 0.0 0.00 0.00 0.00 94 1000.1
20260902231505 45 229 0.0 0.0 0.00 0.00 0.00 93 1000.1
20260902230118 45 229 0.0 0.0 0.00 0.00 0.00 93 1000.3
20260902224613 45 229 0.0 0.0 0.00 0.00 0.00 93 1000.3
20260902223111 45 229 0.0 0.0 0.00 0.00 0.00 93 1000.2
20260902221603 46 229 0.0 0.0 0.00 0.00 0.00 93 1000.2
20260902220052 46 229 0.0 0.0 0.00 0.00 0.00 93 1000.1
20260902214616 46 229 0.0 0.0 0.00 0.00 0.00 93 1000.3
20260902213052 46 229 0.0 0.0 0.00 0.00 0.00 92 1000.4
20260902211552 46 229 0.0 0.0 0.00 0.00 0.00 92 1000.4
20260902210052 46 229 0.0 0.0 0.00 0.00 0.00 92 1000.4
20260902204548 47 229 0.0 0.0 0.00 0.00 0.00 91 1000.5
20260902203048 47 229 0.0 0.0 0.00 0.00 0.00 91 1000.6
20260902201558 47 229 0.0 0.0 0.00 0.00 0.00 91 1000.7
20260902200049 48 229 0.0 0.0 0.00 0.00 0.00 90 1000.7
20260902194551 49 230 0.0 0.0 0.00 0.00 0.00 89 1000.6
20260902193047 50 230 0.0 0.0 0.00 0.00 0.00 88 1000.5
20260902191546 51 230 0.0 0.0 0.00 0.00 0.00 88 1000.6
20260902190045 51 230 0.0 0.0 0.00 0.00 0.00 86 1000.5
20260902184545 52 230 0.0 0.0 0.00 0.00 0.00 85 1000.5
20260902183045 54 230 0.0 0.0 0.00 0.00 0.00 83 1000.6
20260902181544 55 230 0.0 0.0 0.00 0.00 0.00 81 1000.6
20260902180043 56 230 0.0 0.0 0.00 0.00 0.00 80 1000.6
20260902174549 57 230 0.0 0.0 0.00 0.00 0.00 79 1000.5
20260902173042 58 232 0.0 0.0 0.00 0.00 0.00 79 1000.7
20260902171544 59 233 0.0 0.0 0.00 0.00 0.00 78 1000.6
20260902170042 59 233 0.0 0.0 0.00 0.00 0.00 78 1000.7
20260902164547 59 233 1.0 0.0 0.00 0.00 0.00 75 1000.5
20260902163042 61 232 1.0 0.0 0.00 0.00 0.00 71 1000.6
20260902161540 62 227 0.0 0.0 0.00 0.00 0.00 66 1000.5
20260902160040 61 228 0.0 0.0 0.00 0.00 0.00 69 1000.6
20260902154540 61 228 0.0 0.0 0.00 0.00 0.00 69 1000.5
20260902153040 61 228 0.0 0.0 0.00 0.00 0.00 70 1000.5
20260902151537 61 228 0.0 0.0 0.00 0.00 0.00 71 1000.7
20260902150037 61 227 1.0 0.0 0.00 0.00 0.00 70 1000.8
20260902144536 63 221 2.0 0.0 0.00 0.00 0.00 68 1000.7
20260902143039 63 234 1.0 0.0 0.00 0.00 0.00 68 1000.7
20260902141537 64 195 1.0 0.0 0.00 0.00 0.00 68 1000.7
20260902140030 62 188 1.0 0.0 0.00 0.00 0.00 70 1000.7
20260902134532 62 223 1.0 0.0 0.00 0.00 0.00 71 1000.9
20260902133040 62 320 0.0 0.0 0.00 0.00 0.00 66 1000.9
20260902131524 61 313 0.0 0.0 0.00 0.00 0.00 66 1000.9
20260902130027 61 274 1.0 0.0 0.00 0.00 0.00 68 1001.0
20260902124521 60 302 1.0 0.0 0.00 0.00 0.00 67 1001.0
20260902123020 61 355 2.0 0.0 0.00 0.00 0.00 67 1001.2
20260902121517 61 76 1.0 0.0 0.00 0.00 0.00 68 1001.1
20260902120014 60 117 3.0 0.0 0.00 0.00 0.00 67 1001.2
20260902114512 60 96 3.0 0.0 0.00 0.00 0.00 67 1001.2
20260902113010 60 90 2.0 0.0 0.00 0.00 0.00 70 1001.4
20260902111507 60 94 3.0 0.0 0.00 0.00 0.00 69 1001.5
20260902110013 59 103 4.0 0.0 0.00 0.00 0.00 70 1001.7
20260902104504 59 91 3.0 0.0 0.00 0.00 0.00 71 1001.6
20260902103106 59 126 4.0 0.0 0.00 0.00 0.00 73 1001.8